Location: ??????
(42.0089°N, 44.3281°E)
Time: 00:19:27
(UTC+00:00)

Cosmos 2251 Rocket - Pass Details

Date: 31 May 2022
Orbit: 764 x 791 km, 74.0° (Epoch: 03 July)

Event Time Altitude Azimuth Distance (km) Brightness Sun altitude
Rises 20:54:49 0° 357° (N) 3,251 8.1 -26.0°
Reaches altitude 10° 20:59:05 10° 31° (NNE) 2,325 6.7 -26.0°
Maximum altitude 21:00:50 12° 50° (NE) 2,220 6.3 -26.0°
Drops below altitude 10° 21:02:34 10° 70° (ENE) 2,327 6.2 -26.0°
Enters shadow 21:06:19 - 100° (E) 3,114 6.6 -26.0°
